Location: ??
(30.1643°N, 114.3444°E)
Time: 18:03:43
(UTC+00:00)

Daily predictions for brighter satellites

Satellite Brightness Start Highest point End
(mag) Time Altitude Azimuth Time Altitude Azimuth Time Altitude Azimuth
SJ-6B 3.2 12:01:13 10° SSE 12:04:58 47° ENE 12:08:49 10° N
Cosmos 2263 Rocket 2.8 12:01:30 10° N 12:06:40 38° ENE 12:11:41 11° SE
NOSS 7 (D) 4.1 12:03:54 10° SSW 12:06:57 50° ESE 12:09:43 10° NE
IUS-9 SRM-1 2.3 12:06:02 10° W 12:10:27 37° SSW 12:11:53 15° SE
Cosmos 2333 Rocket 4.0 12:10:05 10° ESE 12:11:28 11° E 12:12:59 10° E
DELTA 2 R/B (1) 4.2 12:08:45 10° SSW 12:13:45 34° SE 12:18:45 10° ENE
Cosmos 372 Rocket 4.3 12:08:58 10° N 12:14:05 53° ENE 12:19:04 11° SSE
USA 215 3.6 12:11:59 10° ENE 12:18:04 41° SE 12:24:08 10° SSW
Cosmos 1602 Rocket 4.2 12:14:53 10° SSE 12:18:52 36° E 12:22:55 10° NNE
Delta 2 Rocket 4.2 12:15:52 10° W 12:19:11 38° N 12:22:21 10° ENE
CZ-2C R/B 3.8 12:15:09 10° NNE 12:19:54 68° ESE 12:24:38 10° S
Cosmos 1726 Rocket 4.1 12:17:38 10° NNW 12:22:02 63° W 12:26:26 10° S
SL-16 R/B 2.7 12:16:59 10° SSW 12:22:36 64° WNW 12:28:14 10° NNE
CZ-2C R/B 4.4 12:17:58 10° S 12:23:27 45° W 12:28:47 10° NNW
ARGOS 3.6 12:18:09 10° S 12:23:31 65° W 12:28:55 10° NNW
Cosmos 1818 3.5 12:19:47 10° SSW 12:25:07 64° ESE 12:30:29 10° NNE
Cosmos 1356 Rocket 3.4 12:24:39 10° N 12:28:53 77° E 12:32:52 11° S
MetOp-A 4.2 12:23:38 10° SSE 12:28:55 67° ENE 12:34:14 10° N
CZ-2C R/B 2.9 12:26:42 10° N 12:32:02 73° WNW 12:37:15 10° SSW
GMS 1 Rocket 4.3 12:28:35 10° WSW 12:32:28 55° SSE 12:35:12 17° E
ATLAS 5 CENTAUR R/B 1.2 12:33:34 10° SSW 12:37:32 80° ESE 12:41:46 10° NNE
SL-08 RB Rocket 4.3 12:33:11 10° S 12:37:34 56° W 12:41:57 10° NNW
Resurs 01 Rocket 2.3 12:37:51 21° SE 12:40:14 38° ENE 12:44:19 10° N
Cosmos 2150 Rocket 4.0 12:38:21 10° N 12:43:34 72° ENE 12:47:13 20° SSE
Cosmos 1745 Rocket 4.1 12:37:38 10° SSE 12:43:36 54° E 12:49:38 10° NNE
GEOS 3 Rocket 3.6 12:38:58 10° NE 12:44:21 75° ESE 12:49:41 10° SSW
BREEZE-M DEB (TANK) 3.4 12:37:21 10° NW 12:45:03 66° SW 12:47:41 22° SSE
Cosmos 1844 Rocket 4.4 12:44:25 10° NNE 12:47:51 16° ENE 12:49:56 14° E
Meteor 2-10 Rocket 4.0 12:50:50 10° N 12:55:44 42° E 12:57:51 29° SE
Cosmos 2058 Rocket 4.4 12:52:56 10° NNW 12:57:06 39° W 13:01:14 10° SSW
Iridium 82 4.4 12:58:04 30° S 12:59:42 85° E 13:03:18 10° N
Meteor 1-21 Rocket 4.3 12:55:49 10° S 13:01:40 90° S 13:07:38 10° N
SL-08 ROCKET BODY 4.3 12:57:08 10° S 13:02:58 83° E 13:08:59 10° N
Cosmos 1758 Rocket 3.6 13:02:21 32° SSE 13:04:13 58° E 13:08:39 10° NNE
Cosmos 2322 Rocket 4.2 13:05:27 10° WSW 13:10:14 29° WNW 13:15:03 10° N
OAO 3 Rocket 4.0 13:07:17 10° WNW 13:12:03 50° N 13:15:04 21° ENE
Cosmos 1125 Rocket 3.4 13:09:24 10° NNW 13:14:40 87° ENE 13:16:51 36° SSE
SPOT 3 Rocket 4.2 13:11:49 18° S 13:15:35 53° W 13:20:41 10° NNW
Resurs 1-3 4.5 13:13:32 20° SSW 13:16:17 45° W 13:20:30 10° NNW
NOSS 3-3 (A) 3.7 13:13:57 10° SSW 13:19:28 64° ESE 13:25:29 10° NE
NOSS 3-3 (C) 3.7 13:14:03 10° SSW 13:19:34 63° ESE 13:25:36 10° NE
Cosmos 1400 Rocket 4.1 13:16:47 10° NNE 13:19:35 27° ENE 13:19:35 27° ENE
BREEZE M DEB (TANK) 2.9 13:20:07 31° SSW 13:21:42 62° SE 13:30:56 10° NE
Cosmos 1953 Rocket 3.7 13:27:33 53° E 13:27:33 53° E 13:31:33 10° NNE
Cosmos 1709 Rocket 3.9 13:25:48 34° SSE 13:28:39 71° E 13:34:57 10° N
COSMOS 2428 2.8 13:27:57 46° SE 13:29:04 54° ESE 13:34:35 10° NNE
OAO 2 Rocket 4.1 13:24:47 10° W 13:29:59 54° N 13:33:46 18° ENE
Milstar 3 Cent rocket 4.5 13:31:53 10° SSW 13:32:54 11° SSW 13:32:54 11° SSW
Cosmos 2322 3.8 13:27:36 10° SSW 13:33:17 75° WNW 13:39:01 10° NNE
Nadezhda 1 Rocket 4.1 13:33:08 10° N 13:39:31 74° W 13:42:27 34° S
Cosmos 1328 4.2 13:39:44 52° WSW 13:40:15 58° W 13:44:10 10° N
Cosmos 1844 4.3 13:36:00 10° N 13:41:22 40° ENE 13:41:58 39° E
Cosmos 1825 Rocket 4.1 13:41:58 41° SW 13:43:12 57° W 13:47:34 10° N
Cosmos 2237 Rocket 3.9 13:46:07 18° ENE 13:46:07 18° ENE 13:48:04 10° NE
MetOp-B 4.3 13:42:23 46° S 13:43:56 70° WSW 13:49:16 10° NNW
Atlas Centaur 2 2.5 13:39:25 10° W 13:45:28 88° N 13:48:32 38° E
Cosmos 2219 Rocket 2.0 13:44:18 41° SSW 13:46:22 90° WNW 13:51:59 10° NNE
Cosmos 2360 Rocket 4.2 13:43:39 10° WSW 13:48:20 27° WNW 13:53:03 10° N
Cosmos 2263 Rocket 4.2 13:46:12 10° NW 13:50:13 21° W 13:53:24 13° SW
Cosmos 1461 4.1 13:47:48 10° NW 13:52:10 37° WSW 13:52:40 36° SW
Cosmos 1538 Rocket 3.9 13:53:57 67° SSW 13:54:43 89° WNW 14:00:05 10° NNE
Cosmos 2333 Rocket 2.4 13:51:57 28° SSW 13:55:00 69° WNW 14:00:42 10° NNE
Terra 3.0 13:56:08 30° NE 13:56:08 30° NE 13:59:30 10° N
Cosmos 1455 3.4 13:53:38 10° NNW 13:57:03 37° W 13:57:03 37° W
DELTA 2 R/B (1) 3.9 13:54:28 10° WSW 14:00:00 64° NNW 14:05:34 10° ENE
USA 215 4.3 13:54:51 10° NNE 14:00:59 44° NW 14:07:04 10° WSW
CARTOSAT-1 4.3 14:04:29 48° NNE 14:04:29 48° NNE 14:07:42 10° N
Alouette 2 Rocket 4.1 14:08:31 10° NNW 14:12:51 70° W 14:12:54 70° WSW
ERS-1 Rocket 3.1 14:16:52 71° NNW 14:16:52 71° NNW 14:21:24 10° NNW
Resurs 01 Rocket 4.1 14:15:25 12° WSW 14:16:47 13° W 14:18:56 10° WNW
Cosmos 2278 Rocket 3.8 14:21:59 10° N 14:25:49 22° NE 14:25:49 22° NE
Cosmos 2074 Rocket 3.9 14:30:36 81° NE 14:30:36 81° NE 14:36:33 10° N
Cosmos 1844 Rocket 3.2 14:26:36 10° NNW 14:31:36 51° W 14:31:36 51° W
Cosmos 2181 Rocket 4.0 14:28:32 10° N 14:34:47 71° W 14:34:53 71° W
SPOT 5 3.7 14:37:00 51° WNW 14:37:00 51° WNW 14:41:00 10° NNW
Cosmos 2221 4.5 14:33:09 10° N 14:35:06 25° NNE 14:35:06 25° NNE
Cosmos 2237 Rocket 3.5 15:27:53 34° NW 15:27:53 34° NW 15:32:34 10° N
MOS 1-B Rocket 4.5 15:21:33 10° N 15:27:53 65° NNW 15:27:53 65° NNW
Terra 4.3 15:35:01 15° WNW 15:35:01 15° WNW 15:36:20 10° NW
Atlas Centaur 2 4.0 15:28:12 10° W 15:31:06 28° W 15:31:06 28° W
ATLAS 2AS CENTAUR R/B 3.5 15:30:17 10° NNW 15:36:49 42° NE 15:36:49 42° NE
Cosmos 2344 4.3 15:46:16 37° W 15:48:13 43° NW 15:55:26 10° NNE
USA 267 3.8 16:12:06 51° NW 16:12:06 51° NW 16:16:49 10° NW
Cosmos 2278 Rocket 4.1 16:05:19 10° NW 16:07:39 23° NW 16:07:39 23° NW
SL-16 R/B 3.7 16:13:23 32° NNW 16:13:23 32° NNW 16:16:49 10° N
Cosmos 1943 Rocket 4.1 16:15:23 10° N 16:18:44 23° NE 16:18:44 23° NE
COSMOS 2455 4.1 16:41:42 10° N 16:46:02 36° NNE 16:46:02 36° NNE
Cosmos 2369 Rocket 3.7 16:58:16 10° N 17:01:50 33° NNE 17:01:50 33° NNE
Resurs 1-4 Rocket 4.2 17:02:13 10° NE 17:04:26 20° ENE 17:04:26 20° ENE
SeaSat 1 4.3 17:10:05 10° NNE 17:12:14 26° NE 17:12:14 26° NE
ATLAS 2AS CENTAUR R/B 4.5 17:21:48 10° NW 17:24:13 19° WNW 17:24:13 19° WNW
CZ-2D R/B 3.5 17:30:16 10° NNE 17:33:36 35° NE 17:33:36 35° NE
Lacrosse 5 3.4 17:51:10 31° NE 17:51:10 31° NE 17:53:52 10° NE
SEDSat Delta rocket 4.3 17:57:33 60° ENE 17:57:33 60° ENE 18:02:49 10° E
Cosmos 1943 Rocket 4.2 17:58:41 10° NW 18:00:13 18° NW 18:00:13 18° NW
Cosmos 2251 Rocket 4.1 18:16:05 53° NNE 18:16:05 53° NNE 18:20:04 10° NNE
SL-16 R/B 2.5 18:16:17 82° NNE 18:16:17 82° NNE 18:22:19 10° NNW
Cosmos 1459 Rocket 4.3 18:17:07 55° E 18:17:21 55° E 18:23:14 10° NNE
Lacrosse 5 rocket 3.9 18:19:03 10° NNW 18:19:48 14° N 18:19:48 14° N
ARIANE 5 R/B 4.0 18:18:47 10° NE 18:23:04 27° E 18:23:23 27° ESE
CZ-4C R/B 3.0 18:19:20 10° NNW 18:27:10 88° WSW 18:30:20 44° SSE
Cosmos 405 Rocket 4.3 18:39:01 34° NNE 18:39:01 34° NNE 18:41:22 10° NNE
CZ-4B R/B 4.0 18:33:19 10° N 18:37:25 51° NNW 18:37:25 51° NNW
Cosmos 614 Rocket 4.4 18:40:38 52° E 18:40:38 52° E 18:45:27 10° NNE
Resurs 1-4 Rocket 3.4 18:41:43 10° NNW 18:45:31 29° NW 18:45:31 29° NW
Cosmos 2369 Rocket 4.5 18:43:16 10° NW 18:43:35 11° WNW 18:43:35 11° WNW
OAO 3 Copernicus 4.4 18:49:39 73° NE 18:49:39 73° NE 18:54:22 10° ESE
Okean 1-7 3.6 18:45:57 10° N 18:50:10 53° ENE 18:50:10 53° ENE
IRS-P3 4.0 18:45:48 10° NNE 18:51:10 85° ESE 18:51:24 81° SSE
Cosmos 1869 Rocket 3.9 18:53:33 61° NNE 18:53:33 61° NNE 18:57:13 10° N
Cosmos 2173 Rocket 4.0 18:56:45 60° WSW 18:57:25 64° W 19:03:44 10° N
ADEOS II 2.0 18:53:10 10° N 18:58:23 66° WNW 18:58:26 66° WNW
CZ-2D R/B 4.3 18:59:00 10° NNE 19:03:12 44° E 19:03:45 41° ESE
Cosmos 2016 Rocket 3.8 19:04:48 57° SSW 19:06:10 83° W 19:12:19 10° N
Meteor 2-4 Rocket 4.5 19:01:18 10° N 19:07:06 53° E 19:11:31 17° SSE
Meteor 1-18 Rocket 4.1 19:02:11 10° N 19:08:00 76° W 19:09:09 58° SSW
Cosmos 1703 Rocket 3.6 19:03:57 10° N 19:07:58 68° NW 19:07:58 68° NW
IRS-1D 4.3 19:08:58 10° N 19:13:12 34° WNW 19:13:12 34° WNW
Cosmos 1864 Rocket 4.3 19:11:44 47° S 19:13:39 87° W 19:19:48 10° N
Cosmos 1190 Rocket 4.1 19:13:08 50° SSE 19:14:23 69° ESE 19:19:33 10° NNE
CZ-2D R/B 4.0 19:11:51 10° NNW 19:14:54 16° WNW 19:14:54 16° WNW
Cosmos 1500 3.7 19:16:53 51° NNW 19:16:53 51° NNW 19:19:57 10° N
DELTA 2 R/B (1) 3.5 19:15:43 10° WNW 19:21:21 86° NNE 19:26:58 10° ESE
COBE Rocket 3.9 19:24:55 51° SSW 19:25:58 64° W 19:31:01 10° NNW
SL-08 R/B 3.1 19:25:26 43° S 19:26:58 86° WSW 19:31:42 10° NNW
COSMOS 2406 3.2 19:29:33 44° SW 19:31:25 72° WNW 19:37:12 10° NNE
Lacrosse 5 3.8 19:30:21 15° WNW 19:32:09 18° NW 19:35:32 10° N
Cosmos 1666 2.7 19:32:06 58° SSE 19:32:45 76° E 19:36:33 10° N
Hubble Space Telescope 3.1 19:36:10 13° SSE 19:36:10 13° SSE 19:36:41 10° SE
Cosmos 1437 Rocket 2.8 19:29:22 10° N 19:33:25 78° E 19:34:44 40° SSE
Meteor 1-19 Rocket 4.5 19:30:19 10° NNW 19:35:41 46° W 19:36:55 39° SW
CZ-2C R/B 3.0 19:32:24 10° NNE 19:36:26 68° E 19:37:48 39° S
CZ-2C R/B 4.3 19:36:06 10° NE 19:40:03 25° E 19:43:53 10° SSE
Cosmos 1816 Rocket 4.5 19:36:45 10° N 19:43:07 81° W 19:48:34 15° S
SEDSat Delta rocket 3.9 19:37:40 16° W 19:43:08 90° NE 19:49:19 10° E
SWIFT 3.9 19:46:52 21° SSE 19:46:52 21° SSE 19:49:37 10° SE
Cosmos 2082 Rocket 2.7 19:44:07 19° S 19:48:06 56° ESE 19:53:41 10° NNE
IDEFIX/ARIANE 42P 2.5 19:43:59 10° N 19:49:09 68° WNW 19:51:44 30° SSW
ERS-2 2.5 19:47:29 13° SSE 19:50:40 62° ENE 19:54:16 10° N
Cosmos 407 Rocket 4.2 19:50:29 30° WSW 19:52:13 38° WNW 19:57:11 10° N
Meteor 1-11 Rocket 3.8 19:52:31 28° SSW 19:55:22 58° W 20:00:50 10° N
GOES 2 Rocket 3.5 19:52:01 22° W 19:56:14 76° S 20:01:13 10° E
Spot 4 Rocket 4.5 19:51:37 10° N 19:56:29 44° WNW 19:58:43 28° SW
Cosmos 2233 Rocket 4.0 19:54:03 25° SSW 19:57:42 60° W 20:03:49 10° N
Cosmos 1356 3.6 19:59:39 23° S 20:01:35 68° E 20:05:01 10° NNE
ARIANE 5 R/B 3.7 19:57:50 10° NNW 20:02:00 26° WNW 20:03:43 22° W
ATLAS 5 CENTAUR R/B 4.3 19:56:35 10° NNW 20:02:04 81° ENE 20:27:06 10° SSE
Cosmos 676 Rocket 4.0 20:00:52 25° SSW 20:03:53 67° WNW 20:09:06 10° N
CZ-3B R/B 3.8 20:00:48 21° SW 20:04:33 29° S 20:08:15 10° ESE
Cosmos 1733 Rocket 3.3 20:02:46 29° SW 20:04:39 49° W 20:08:51 10° N
Aureole 1 Rocket 3.4 20:03:47 30° WSW 20:04:50 37° WNW 20:08:55 10° N
Delta 198 4.4 20:03:37 27° SW 20:04:54 32° SSW 20:08:50 10° SE
Meteor 2-11 Rocket 4.4 19:59:50 13° S 20:05:22 88° W 20:11:29 10° N
CZ-4C R/B 2.7 20:05:55 16° S 20:08:34 76° WSW 20:11:52 10° NNW
Okean 3 3.9 20:05:50 10° NNW 20:09:45 41° W 20:11:54 23° SSW
Cosmos 1833 Rocket 3.0 20:07:02 23° SW 20:10:14 49° WNW 20:15:40 10° N
Cosmos 2221 Rocket 3.8 20:06:33 10° NNW 20:10:49 50° W 20:14:02 17° SSW
deb Kosmos-1763 4.2 20:09:37 19° S 20:12:03 70° ESE 20:15:37 10° NNE
Cosmos 1140 Rocket 4.4 20:09:58 22° WSW 20:12:21 32° WNW 20:16:59 10° N
Cosmos 1536 3.7 20:12:30 25° WSW 20:13:59 32° W 20:17:40 10° NNW
CZ-4C R/B 4.4 20:10:50 10° WNW 20:15:12 16° WSW 20:15:19 16° WSW
Delta 128 4.0 20:12:23 15° W 20:17:16 68° S 20:22:14 10° ESE
Tsikada Rocket 4.4 20:12:41 10° NNW 20:18:43 45° W 20:24:43 10° SSW
GPS 2-04 Rocket1 4.0 20:16:11 10° WNW 20:19:45 35° N 20:23:27 10° ENE
ASTRO E2 2.8 20:19:08 15° W 20:22:23 73° N 20:26:21 10° E
Cosmos 1900 4.3 20:21:58 15° SSW 20:25:57 83° WNW 20:30:54 10° NNE
deb Chang Zheng 4 3.5 20:29:41 10° N 20:33:55 66° WNW 20:38:08 10° SSW
Cosmos 220 Rocket 4.2 20:31:15 10° NNW 20:35:19 45° WSW 20:39:19 10° S
CZ-3 R/B 4.2 19:47:52 10° WNW 20:37:34 60° SW 20:48:49 10° SE
H-2A R/B 2.9 20:35:27 10° SSW 20:39:25 31° W 20:43:21 10° NW
Cosmos 1263 4.0 20:39:26 10° N 20:42:27 89° ESE 20:45:27 10° S
CZ-3A R/B 3.1 20:43:53 12° WSW 20:47:07 29° S 20:56:29 10° ESE
Meteor 1-31 Rocket 3.6 20:45:15 10° NNE 20:49:05 53° E 20:52:55 10° S
Cosmos 2369 3.9 20:44:48 10° NNW 20:50:33 82° ENE 20:56:16 10° SSE
NATO 3D Rocket 4.5 20:45:16 10° WSW 20:51:18 35° S 20:55:59 10° ESE
Cosmos 1464 Rocket 4.2 20:46:49 10° SSW 20:53:02 59° W 20:59:20 10° N
CZ-4B R/B 1.3 20:50:43 10° S 20:54:05 75° WSW 20:57:32 10° NNW
Cosmos 1378 3.1 20:51:00 10° NNW 20:54:42 63° W 20:58:23 10° S
Cosmos 1656 4.1 20:50:10 10° NW 20:55:09 39° WSW 21:00:10 10° S
Cosmos 192 4.4 20:52:45 10° NNW 20:57:41 89° WSW 21:02:33 10° SSE
CENTAUR R/B 4.5 20:53:59 10° SSE 20:58:11 23° ESE 21:02:48 10° ENE
Cosmos 2034 Rocket 4.0 20:52:03 10° S 20:58:12 77° W 21:04:22 10° N
Cosmos 1544 3.2 20:54:43 10° SSW 20:58:13 53° W 21:01:44 10° N
Cosmos 1743 3.9 20:55:42 10° SW 20:58:50 25° W 21:02:00 10° NNW
